Flag for U.S.A. Weather past 2 weeks in Helena, Montana, U.S.A.

Now
59 °F

Scattered clouds.


Feels Like: 56 °F
Forecast: 45 / 58 °F
Wind: 14 mph from Northwest

Location: Helena Regional Airport

Current Time: Sep 30, 2014 at 4:48:14 PM

Latest Report: Sep 30, 2014 at 3:53 PM


Visibility: 10 mi

Pressure: 29.78 "Hg

Humidity: 41%

Dew point: 35 °F

Location of HelenaLocation

Historic Weather in Helena — Graph

°F

Helena temperature yesterday

Maximum temperature yesterday: 64 °F (at 1:53 PM)
Minimum temperature yesterday: 47 °F (at 8:53 AM)
Average temperature yesterday: 55 °F

Past Weeks' High & Low Weather Summary

 TemperatureHumidityPressure
High91 °F (Sep 25, 3:53 PM)93% (Sep 27, 2:53 PM)30.25 "Hg (Sep 27, 2:53 PM)
Low43 °F (Sep 16, 7:53 AM)10% (Sep 25, 4:53 PM)29.64 "Hg (Sep 25, 11:53 PM)
Average63 °F57%29.97 "Hg
* Reported Sep 15 2:53 PM — Sep 30 2:53 PM, Helena, Weather by CustomWeather, © 2014

Note: Actual official high and low records may vary slightly from our data, if they occured in-between our weather recording intervals... More about our weather records

Advertising

Helena weather history for previous 24 hours

 ConditionsComfort  
Time TempWeatherWind HumidityBarometerVisibility
2:53 PM
Sep 30
58 °FPartly sunny.20 mph46%29.78 "Hg10 mi
1:53 PM59 °FPartly sunny.15 mph42%29.79 "Hg10 mi
12:53 PM57 °FMore clouds than sun.13 mph55%29.80 "Hg10 mi
11:53 AM57 °FMostly cloudy.13 mph60%29.79 "Hg10 mi
10:53 AM56 °FOvercast.15 mph65%29.79 "Hg10 mi
9:53 AM53 °FLight rain. Mostly cloudy.5 mph80%29.79 "Hg10 mi
8:53 AM52 °FLight rain. Overcast.3 mph86%29.78 "Hg9 mi
7:53 AM54 °FPassing clouds.5 mph69%29.79 "Hg10 mi
6:53 AM54 °FOvercast.7 mph64%29.76 "Hg10 mi
5:53 AM53 °FMostly cloudy.6 mph74%29.76 "Hg10 mi
4:53 AM55 °FOvercast.8 mph64%29.76 "Hg10 mi
3:53 AM55 °FOvercast.10 mph64%29.77 "Hg10 mi
2:53 AM56 °FMostly cloudy.13 mph65%29.78 "Hg10 mi
1:53 AM56 °FMostly cloudy.10 mph62%29.78 "Hg10 mi
12:53 AM56 °FPassing clouds.16 mph62%29.77 "Hg10 mi
11:53 PM
Sep 29
57 °FPassing clouds.16 mph60%29.77 "Hg10 mi
10:53 PM57 °FPassing clouds.16 mph64%29.77 "Hg10 mi
9:53 PM58 °FOvercast.14 mph65%29.78 "Hg10 mi
8:53 PM59 °FOvercast.14 mph62%29.80 "Hg10 mi
7:53 PM58 °FOvercast.3 mph78%29.79 "Hg10 mi
6:53 PM60 °FOvercast.3 mph67%29.78 "Hg10 mi
5:53 PM63 °FOvercast.6 mph58%29.76 "Hg10 mi
4:53 PM64 °FScattered clouds.16 mph52%29.76 "Hg10 mi
Weather by CustomWeather, © 2014

See weather overviewHow to use our weather pages